Change the Weather History Date:

Friday, April 26, 2013

  Actual Average Record
Temperature  
Mean Temperature 58 °F 57 °F  
Max Temperature 81 °F 75 °F 95 °F (1996)
Min Temperature 35 °F 39 °F 21 °F (1974)
Degree Days  
Heating Degree Days 7 8  
Month to date heating degree days 279 269  
Since 1 July heating degree days 2795 2737  
Cooling Degree Days 0 0  
Month to date cooling degree days 0 0  
Year to date cooling degree days 0 0  
Growing Degree Days 9 (Base 50)    
Moisture  
Dew Point 41 °F    
Average Humidity 57    
Maximum Humidity 92    
Minimum Humidity 21    
Precipitation  
Precipitation 0.00 in 0.02 in 0.65 in (1963)
Month to date precipitation 0.01 0.87  
Year to date precipitation 4.45 9.77  
Since 1 July precipitation 8.92 15.35  
Snow  
Snow 0.00 in - - ()
Month to date snowfall 0.0  
Year to date snowfall 0.0  
Since 1 July snowfall 0.0  
Snow Depth 0.00 in    
Sea Level Pressure  
Sea Level Pressure 30.05 in    
Wind  
Wind Speed 7 mph (NNW)    
Max Wind Speed 21 mph    
Max Gust Speed 29 mph    
T = Trace of Precipitation, MM = Missing Value Source: NWS Daily Summary

Daily Weather History Graph

Daily Weather History Graph

Search for Another Location

Airport or City:

Trip Planner

Search our weather history database for the weather conditions in past years. The results will help you decide how hot, cold, wet, or windy it might be!

Date:

Astronomy

Apr. 26, 2013 Rise Set
Actual Time 6:03 AM PDT 7:24 PM PDT
Civil Twilight 5:37 AM PDT 7:49 PM PDT
Nautical Twilight 5:06 AM PDT 8:20 PM PDT
Astronomical Twilight 4:34 AM PDT 8:53 PM PDT
Moon 8:47 PM PDT (4/26) 6:37 AM PDT (4/26)
Length of Visible Light 14h 12m
Length of Day
13h 20m
Full, 99% of the Moon is Illuminated
Apr 26
Full
May 2
Last Quarter
May 9
New
May 17
First Quarter
May 24
Full

Hourly Weather History & Observations

Time (PDT) Temp. Windchill Dew Point Humidity Pressure Visibility Wind Dir Wind Speed Gust Speed Precip Events Conditions
12:52 AM 41.0 °F 38.0 °F 37.0 °F 86% 30.05 in - NE 4.6 mph - N/A   Unknown
1:52 AM 37.9 °F 35.5 °F 35.1 °F 89% 30.04 in - NE 3.5 mph - N/A   Unknown
2:52 AM 37.0 °F 33.3 °F 35.1 °F 93% 30.04 in - NE 4.6 mph - N/A   Unknown
3:52 AM 39.0 °F 35.7 °F 36.0 °F 89% 30.04 in - NE 4.6 mph - N/A   Unknown
4:52 AM 37.0 °F 31.6 °F 34.0 °F 89% 30.04 in - NE 6.9 mph - N/A   Unknown
5:52 AM 39.0 °F 36.8 °F 36.0 °F 89% 30.04 in - NE 3.5 mph - N/A   Unknown
6:52 AM 39.9 °F 35.8 °F 37.0 °F 89% 30.07 in - ENE 5.8 mph - N/A   Unknown
7:52 AM 50.0 °F - 43.0 °F 77% 30.06 in - Calm Calm - N/A   Unknown
8:52 AM 60.1 °F - 43.0 °F 53% 30.06 in - Calm Calm - N/A   Unknown
9:52 AM 66.9 °F - 43.0 °F 42% 30.06 in - South 4.6 mph - N/A   Unknown
10:52 AM 73.0 °F - 45.0 °F 37% 30.06 in - South 8.1 mph - N/A   Unknown
11:52 AM 75.9 °F - 45.0 °F 33% 30.04 in - SW 16.1 mph - N/A   Unknown
12:52 PM 80.1 °F - 39.9 °F 24% 30.03 in - WSW 9.2 mph 17.3 mph N/A   Unknown
1:52 PM 80.1 °F - 37.9 °F 22% 30.03 in - NW 16.1 mph 23.0 mph N/A   Unknown
2:52 PM 81.0 °F - 37.9 °F 21% 30.02 in - WNW 17.3 mph - N/A   Unknown
3:52 PM 79.0 °F - 39.0 °F 24% 30.02 in - West 12.7 mph 20.7 mph N/A   Unknown
4:52 PM 78.1 °F - 43.0 °F 29% 30.03 in - West 8.1 mph 16.1 mph N/A   Unknown
5:52 PM 72.0 °F - 46.9 °F 41% 30.03 in - SW 11.5 mph - N/A   Unknown
6:52 PM 66.0 °F - 46.0 °F 48% 30.06 in - SW 9.2 mph - N/A   Unknown
7:52 PM 59.0 °F - 46.9 °F 64% 30.06 in - SSW 6.9 mph - N/A   Unknown
8:52 PM 57.0 °F - 46.0 °F 67% 30.08 in - Calm Calm - N/A   Unknown
9:52 PM 51.1 °F - 43.0 °F 74% 30.09 in - NNE 3.5 mph - N/A   Unknown
10:52 PM 48.0 °F - 41.0 °F 77% 30.09 in - ENE 5.8 mph - N/A   Unknown
11:52 PM 46.0 °F - 39.9 °F 79% 30.09 in - Calm Calm - N/A   Unknown